Weather History for Santa Fe, NM

Change the Weather History Date:

Friday, March 29, 2013

  Actual Average Record
Temperature  
Mean Temperature 50 °F -  
Max Temperature 70 °F 0 °F 72 °F (2012)
Min Temperature 33 °F - 15 °F (2003)
Degree Days  
Heating Degree Days 16    
Moisture  
Dew Point 15 °F    
Average Humidity 27    
Maximum Humidity 48    
Minimum Humidity 12    
Precipitation  
Precipitation 0.00 in - - ()
Sea Level Pressure  
Sea Level Pressure 30.00 in    
Wind  
Wind Speed 6 mph (North)    
Max Wind Speed 15 mph    
Max Gust Speed 30 mph    
Visibility 10 miles    
Events      
Averages and records for this station are not official NWS values.
T = Trace of Precipitation, MM = Missing Value Source: NWS Daily Summary

Daily Weather History Graph

Daily Weather History Graph

Search for Another Location

Airport:

Trip Planner

Search our weather history database for the weather conditions in past years. The results will help you decide how hot, cold, wet, or windy it might be!

Date:

Astronomy

Mar. 29, 2013 Rise Set
Actual Time 6:54 AM MDT 7:23 PM MDT
Civil Twilight 6:29 AM MDT 7:49 PM MDT
Nautical Twilight 5:59 AM MDT 8:19 PM MDT
Astronomical Twilight 5:28 AM MDT 8:50 PM MDT
Moon 10:19 PM MDT (3/29) 8:11 AM MDT (3/29)
Length of Visible Light 13h 20m
Length of Day
12h 29m
Waning Gibbous, 93% of the Moon is Illuminated
Mar 29
Waning Gibbous
Apr 2
Last Quarter
Apr 10
New
Apr 18
First Quarter
Apr 25
Full

Hourly Weather History & Observations

Time (MDT) Temp. Windchill Dew Point Humidity Pressure Visibility Wind Dir Wind Speed Gust Speed Precip Events Conditions
12:53 AM 39.0 °F 34.8 °F 15.1 °F 38% 29.99 in 10.0 mi NNE 5.8 mph - N/A   Clear
1:53 AM 39.0 °F - 16.0 °F 39% 30.00 in 10.0 mi Calm Calm - N/A   Clear
2:53 AM 39.0 °F 36.8 °F 16.0 °F 39% 29.99 in 10.0 mi North 3.5 mph - N/A   Clear
3:53 AM 37.9 °F 35.5 °F 17.1 °F 43% 29.99 in 10.0 mi North 3.5 mph - N/A   Clear
4:53 AM 37.9 °F 32.7 °F 16.0 °F 41% 29.99 in 10.0 mi NNE 6.9 mph - N/A   Clear
5:53 AM 33.1 °F 25.5 °F 15.1 °F 48% 30.02 in 10.0 mi NNE 9.2 mph - N/A   Clear
6:53 AM 36.0 °F 32.1 °F 16.0 °F 44% 30.06 in 10.0 mi NNE 4.6 mph - N/A   Clear
7:53 AM 41.0 °F 37.1 °F 12.9 °F 32% 30.08 in 10.0 mi North 5.8 mph - N/A   Clear
8:53 AM 48.0 °F - 12.0 °F 24% 30.06 in 10.0 mi NNE 5.8 mph - N/A   Clear
9:53 AM 55.9 °F - 12.0 °F 18% 30.04 in 10.0 mi Variable 4.6 mph - N/A   Clear
10:53 AM 59.0 °F - 14.0 °F 17% 30.04 in 10.0 mi South 8.1 mph - N/A   Clear
11:53 AM 63.0 °F - 17.1 °F 17% 30.02 in 10.0 mi SW 9.2 mph - N/A   Clear
12:53 PM 63.0 °F - 17.1 °F 17% 30.04 in 10.0 mi West 4.6 mph - N/A   Clear
1:53 PM 66.9 °F - 12.9 °F 12% 29.98 in 10.0 mi SSW 11.5 mph 18.4 mph N/A   Clear
2:53 PM 66.9 °F - 12.9 °F 12% 29.96 in 10.0 mi SSW 8.1 mph - N/A   Partly Cloudy
3:53 PM 66.0 °F - 15.1 °F 14% 29.95 in 10.0 mi North 11.5 mph 17.3 mph N/A   Overcast
4:53 PM 66.0 °F - 16.0 °F 15% 29.94 in 10.0 mi WNW 4.6 mph 18.4 mph N/A   Mostly Cloudy
5:53 PM 64.9 °F - 15.1 °F 15% 29.96 in 10.0 mi NE 4.6 mph - N/A   Overcast
6:53 PM 64.9 °F - 17.1 °F 16% 29.95 in 10.0 mi NNE 15.0 mph 29.9 mph N/A   Mostly Cloudy
7:53 PM 54.0 °F - 14.0 °F 21% 29.99 in 10.0 mi NNW 4.6 mph - N/A   Clear
8:53 PM 48.9 °F - 12.9 °F 24% 30.02 in 10.0 mi NNE 9.2 mph - N/A   Clear
9:53 PM 50.0 °F - 17.1 °F 27% 30.01 in 10.0 mi NNE 10.4 mph - N/A   Clear
10:53 PM 46.9 °F - 19.9 °F 34% 30.02 in 10.0 mi NNE 10.4 mph - N/A   Clear
11:53 PM 44.1 °F 41.5 °F 19.0 °F 37% 30.01 in 10.0 mi NNW 4.6 mph - N/A   Clear